Theta_e
284 284 283 283 282 282 281 281 280 280 280 280 281 280 280 279 278 277 277 277 277 278
284 284 283 282 282 281 281 281 280 280 279 279 279 278 278 277 277 276 276 275 276 276
284 283 283 282 281 281 280 280 279 278 278 278 277 277 277 276 276 275 275 275 275 275
283 283 282 281 281 280 280 279 278 278 277 277 276 276 275 274 274 274 274 274 274 274
282 282 281 280 279 280 279 279 278 278 277 276 276 275 275 274 274 274 274 274 274 273
281 281 280 279 279 279 278 277 277 277 276 275 275 275 275 275 274 273 273 273 273 273
281 280 280 279 279 278 277 277 277 276 276 275 275 275 275 274 273 273 273 274 273 273
281 281 280 279 278 277 277 276 276 276 275 275 274 275 274 274 274 273 272 273 274 273
281 280 279 278 277 277 276 276 276 275 275 273 274 279 279 276 274 273 272 272 272 272
281 280 279 278 277 277 276 276 275 274 274 273 273 280 280 279 274 273 272 272 272 272
281 280 279 277 277 276 275 275 274 274 273 273 273 279 279 278 273 272 272 271 271 271
281 280 278 277 276 276 275 274 274 274 273 272 272 279 279 277 272 272 271 272 271 271
281 280 278 277 276 276 275 275 274 273 272 272 271 277 278 277 272 267 270 271 272 275
281 280 279 278 276 276 274 273 272 272 270 269 268 268 277 278 272 269 267 269 270 272
Wind_Speed
11 8 8 8 9 7 7 7 6 7 7 7 7 7 7 6 5 5 5 7 5 4
11 12 10 10 8 7 8 7 8 7 8 7 8 8 6 5 5 6 5 6 5 4
13 11 12 11 12 11 8 9 9 8 8 7 7 7 6 6 5 6 3 4 5 3
12 12 12 11 11 10 10 10 10 9 8 8 7 6 7 7 6 6 5 4 5 4
12 12 12 12 11 11 12 9 10 9 9 8 7 7 7 7 5 6 5 4 3 3
14 14 14 13 12 11 11 10 9 9 10 9 8 7 6 7 6 5 5 3 2 1
15 15 13 12 12 11 10 11 9 8 8 7 7 8 8 7 5 5 4 3 2 1
13 12 12 12 10 9 9 9 8 8 6 6 6 6 7 7 6 5 4 3 2 2
12 12 12 12 11 10 9 8 8 8 8 6 4 13 13 9 6 5 4 3 2 1
13 13 12 11 11 11 11 9 8 7 7 6 5 14 13 12 5 5 4 3 1 3
13 13 12 12 12 10 9 10 8 8 7 7 6 14 13 12 5 4 4 3 3 5
15 15 14 13 12 9 8 7 7 6 7 7 5 14 13 10 5 5 4 4 5 6
16 15 15 14 13 10 9 8 6 7 7 7 6 12 12 10 5 4 3 4 6 11
17 18 17 15 10 10 9 7 7 7 5 6 6 7 14 15 6 5 4 4 4 5
Wind_Direction
137 141 138 139 137 129 129 132 136 122 112 112 107 97 88 88 86 82 81 78 71 72
145 148 146 137 131 133 133 134 127 120 117 113 107 100 99 101 103 93 88 85 82 82
153 149 145 142 141 144 142 137 138 130 122 118 113 119 120 108 98 96 87 88 81 71
151 149 146 146 146 147 145 149 142 134 131 131 132 133 117 107 110 104 101 89 86 75
148 149 149 153 155 156 153 150 147 143 144 145 145 141 128 115 111 109 107 98 84 81
158 159 162 162 160 158 154 150 146 149 156 153 149 134 120 119 116 115 118 122 139 139
168 167 165 162 163 157 154 151 155 164 154 149 146 139 135 131 133 135 136 163 175 180
166 163 160 158 161 154 154 156 156 147 147 149 157 147 137 137 139 151 157 160 202 147
163 160 164 162 160 158 154 150 152 161 154 158 172 166 156 144 157 158 157 183 201 284
169 167 167 160 158 164 166 157 165 163 160 175 172 172 171 162 160 158 176 188 198 271
171 171 166 163 170 166 165 170 170 170 176 173 186 187 176 179 158 166 190 191 226 241
175 169 168 173 173 170 163 171 176 176 183 179 188 190 184 181 156 191 194 219 235 244
171 171 175 177 174 176 178 178 169 180 186 182 182 196 196 191 165 171 206 232 242 255
179 181 181 178 175 170 172 163 178 183 173 184 184 205 211 212 170 187 205 220 236 245